Total_Precipitation_Accumulation
0.00 0.00 0.01 0.01 0.02 0.02 0.04 0.09 0.22 0.26 0.20 0.28 0.36 0.56 0.66 0.77 0.95 0.95 0.83 0.87 1.17 1.39 1.65 2.02 2.60 3.48 4.55 5.43 5.71 5.16 4.60 4.22 3.78 3.33 2.73 2.34 2.21 2.09 1.87 1.63 1.35 1.19 1.09 1.11
0.00 0.02 0.02 0.01 0.02 0.04 0.06 0.08 0.19 0.26 0.18 0.21 0.35 0.66 0.94 0.92 0.84 0.82 0.85 0.83 0.99 1.37 1.82 2.45 3.45 4.11 4.38 4.49 4.21 3.85 3.53 3.32 2.86 2.39 2.06 1.85 1.80 1.65 1.47 1.36 1.25 1.00 0.90 0.91
0.01 0.03 0.02 0.02 0.03 0.09 0.10 0.10 0.18 0.25 0.15 0.16 0.36 0.80 1.07 1.08 0.86 0.73 0.73 0.69 0.93 1.38 1.96 2.76 3.33 3.47 3.21 2.89 2.79 2.71 2.72 2.45 2.29 2.17 2.01 1.90 1.85 1.65 1.38 1.22 1.12 0.92 0.81 0.79
0.01 0.02 0.02 0.02 0.04 0.08 0.09 0.06 0.06 0.09 0.15 0.33 0.52 1.03 1.18 0.98 0.92 0.76 0.74 0.72 0.85 1.16 1.49 1.92 2.16 2.07 2.19 2.31 2.31 2.40 2.45 2.17 2.14 2.04 1.68 1.49 1.38 1.25 1.08 1.00 1.03 1.07 0.91 0.79
0.02 0.03 0.02 0.02 0.03 0.04 0.04 0.03 0.04 0.11 0.22 0.41 0.60 0.85 0.96 0.76 0.90 0.73 0.61 0.63 0.65 0.83 0.92 1.02 1.14 1.28 1.49 1.59 1.74 2.03 2.22 2.15 1.99 1.81 1.66 1.56 1.39 1.33 1.29 1.24 1.21 1.16 1.07 0.90
0.03 0.04 0.03 0.02 0.02 0.03 0.03 0.05 0.12 0.23 0.40 0.89 0.84 0.82 1.02 0.92 0.91 0.69 0.52 0.47 0.55 0.70 0.78 0.81 0.85 0.98 1.14 1.26 1.40 1.65 1.94 2.05 1.98 1.81 1.66 1.58 1.51 1.44 1.35 1.30 1.26 1.12 1.04 0.98
0.09 0.07 0.05 0.03 0.03 0.05 0.05 0.07 0.24 0.58 0.98 1.14 0.71 0.78 1.05 0.79 0.68 0.51 0.31 0.29 0.43 0.64 0.77 0.83 0.79 0.75 0.82 0.97 1.13 1.21 1.37 1.60 1.70 1.65 1.58 1.53 1.58 1.44 1.24 1.14 1.09 1.05 0.93 0.85
0.14 0.12 0.06 0.04 0.04 0.06 0.05 0.04 0.11 0.22 0.33 0.51 0.66 1.05 1.18 0.84 0.56 0.31 0.20 0.24 0.39 0.55 0.59 0.65 0.67 0.62 0.59 0.69 0.87 0.98 1.15 1.30 1.48 1.47 1.41 1.36 1.40 1.32 1.21 1.18 0.99 0.91 0.88 0.83
0.05 0.05 0.04 0.04 0.05 0.06 0.05 0.03 0.04 0.07 0.12 0.32 0.66 0.96 0.92 0.73 0.51 0.32 0.23 0.23 0.25 0.33 0.40 0.50 0.58 0.62 0.62 0.62 0.73 0.84 1.02 1.18 1.35 1.45 1.44 1.33 1.32 1.33 1.29 1.18 1.04 0.91 0.95 0.93
0.02 0.02 0.04 0.04 0.05 0.06 0.05 0.04 0.04 0.05 0.11 0.23 0.50 0.87 1.05 0.87 0.58 0.35 0.30 0.29 0.34 0.36 0.32 0.44 0.56 0.58 0.52 0.45 0.52 0.66 0.82 1.02 1.15 1.31 1.32 1.20 1.33 1.30 1.27 1.18 1.05 0.94 0.91 0.90
0.02 0.02 0.05 0.05 0.06 0.08 0.07 0.06 0.06 0.05 0.08 0.14 0.33 0.55 0.51 0.45 0.36 0.31 0.34 0.32 0.28 0.31 0.29 0.38 0.45 0.47 0.43 0.38 0.40 0.48 0.63 0.79 0.88 0.97 1.08 1.07 1.12 1.08 1.06 1.07 1.05 1.02 0.98 0.94
0.02 0.02 0.03 0.06 0.09 0.08 0.09 0.09 0.09 0.08 0.08 0.09 0.16 0.34 0.29 0.30 0.30 0.29 0.37 0.39 0.31 0.30 0.39 0.35 0.31 0.38 0.45 0.38 0.33 0.37 0.49 0.62 0.68 0.75 0.79 0.83 0.90 0.94 0.92 0.91 0.99 1.06 1.01 0.96
0.03 0.02 0.03 0.11 0.17 0.15 0.10 0.08 0.09 0.10 0.09 0.08 0.20 0.39 0.30 0.23 0.30 0.28 0.32 0.49 0.53 0.27 0.26 0.27 0.28 0.33 0.38 0.35 0.32 0.37 0.43 0.51 0.59 0.59 0.63 0.71 0.77 0.79 0.79 0.81 0.89 0.99 1.03 1.04
0.03 0.02 0.03 0.09 0.18 0.20 0.16 0.11 0.11 0.10 0.07 0.07 0.13 0.32 0.30 0.27 0.28 0.37 0.46 0.43 0.33 0.21 0.18 0.20 0.24 0.33 0.37 0.34 0.31 0.34 0.41 0.52 0.57 0.61 0.73 0.82 0.88 0.87 0.87 0.85 0.90 0.97 1.03 1.05
0.03 0.02 0.02 0.03 0.06 0.11 0.15 0.15 0.12 0.08 0.05 0.07 0.10 0.19 0.18 0.24 0.29 0.38 0.36 0.31 0.31 0.28 0.23 0.24 0.28 0.42 0.47 0.47 0.44 0.43 0.49 0.58 0.67 0.78 0.93 1.11 1.23 1.23 1.15 1.12 1.16 1.19 1.23 1.26
0.03 0.03 0.03 0.03 0.06 0.10 0.12 0.13 0.10 0.07 0.05 0.05 0.07 0.13 0.15 0.24 0.29 0.34 0.30 0.29 0.34 0.37 0.30 0.30 0.39 0.50 0.49 0.45 0.45 0.45 0.51 0.60 0.64 0.72 0.82 0.99 1.17 1.26 1.22 1.20 1.29 1.36 1.41 1.52
0.06 0.06 0.04 0.04 0.07 0.09 0.15 0.12 0.09 0.08 0.07 0.07 0.10 0.13 0.16 0.23 0.34 0.41 0.39 0.43 0.41 0.35 0.28 0.28 0.36 0.41 0.46 0.40 0.38 0.39 0.45 0.59 0.70 0.83 0.93 1.01 1.12 1.22 1.25 1.25 1.34 1.43 1.43 1.42
0.16 0.14 0.11 0.09 0.10 0.15 0.15 0.12 0.11 0.10 0.11 0.14 0.17 0.18 0.22 0.25 0.33 0.39 0.40 0.39 0.39 0.41 0.46 0.49 0.57 0.57 0.52 0.48 0.48 0.51 0.58 0.69 0.77 0.84 0.93 0.99 1.09 1.20 1.31 1.44 1.51 1.56 1.60 1.60
0.27 0.28 0.22 0.16 0.15 0.17 0.20 0.18 0.17 0.19 0.23 0.23 0.30 0.35 0.34 0.33 0.34 0.41 0.45 0.46 0.50 0.48 0.49 0.58 0.66 0.70 0.61 0.62 0.62 0.69 0.77 0.87 0.94 0.96 1.04 1.11 1.17 1.30 1.38 1.45 1.56 1.64 1.70 1.66
0.32 0.35 0.32 0.24 0.26 0.27 0.26 0.27 0.22 0.24 0.45 0.41 0.42 0.49 0.47 0.48 0.61 0.72 0.72 0.61 0.59 0.60 0.60 0.66 0.66 0.65 0.71 0.75 0.77 0.83 0.93 1.04 1.11 1.10 1.13 1.18 1.32 1.40 1.40 1.39 1.45 1.49 1.52 1.52
0.36 0.42 0.39 0.35 0.34 0.32 0.29 0.29 0.30 0.53 0.77 0.75 0.72 0.70 0.62 0.66 0.72 0.71 0.65 0.68 0.65 0.68 0.75 0.72 0.70 0.72 0.74 0.74 0.76 0.86 0.97 1.09 1.16 1.16 1.15 1.21 1.29 1.43 1.46 1.47 1.43 1.37 1.35 1.35
0.55 0.60 0.58 0.54 0.63 0.63 0.43 0.45 0.61 0.79 0.78 0.90 0.79 0.69 0.67 0.65 0.64 0.60 0.61 0.71 0.77 0.79 0.83 0.80 0.76 0.71 0.70 0.75 0.79 0.86 0.97 1.01 1.05 1.05 1.06 1.10 1.13 1.14 1.20 1.32 1.36 1.35 1.35 1.35
0.72 0.77 0.80 0.74 0.78 0.70 0.58 0.60 0.65 0.62 0.63 0.75 0.71 0.62 0.62 0.59 0.56 0.53 0.58 0.65 0.67 0.71 0.76 0.76 0.77 0.76 0.75 0.79 0.84 0.92 0.94 0.97 0.98 1.05 1.11 1.12 1.09 1.11 1.17 1.22 1.23 1.21 1.17 1.13
0.86 0.68 0.80 0.98 0.96 0.82 0.68 0.57 0.57 0.56 0.56 0.59 0.67 0.71 0.67 0.61 0.56 0.55 0.57 0.62 0.70 0.76 0.76 0.75 0.74 0.76 0.85 0.91 0.97 0.94 0.89 0.94 1.02 1.06 1.06 1.08 1.11 1.08 1.08 1.16 1.13 1.08 1.06 1.03
0.91 0.84 1.01 1.37 1.41 1.19 1.01 0.85 0.74 0.68 0.65 0.66 0.72 0.76 0.80 0.79 0.76 0.73 0.65 0.62 0.63 0.69 0.68 0.68 0.74 0.80 0.87 0.90 0.95 1.00 0.97 0.97 1.01 0.98 0.94 1.00 1.05 1.01 0.96 1.04 1.11 1.02 1.02 1.05
0.88 1.02 1.29 1.59 1.47 1.40 1.29 1.04 0.88 0.83 0.83 0.77 0.79 0.81 0.81 0.80 0.80 0.77 0.75 0.65 0.58 0.58 0.67 0.73 0.76 0.82 0.87 0.88 0.90 0.91 0.92 0.97 1.02 1.05 0.98 0.92 0.92 0.93 0.96 1.00 1.02 1.01 0.89 0.88